Location: Berg
(47.2344°N, 9.5296°E)
Time: 23:00:46
(UTC+00:00)

COSMOS 2455 - Pass Details

Date: 24 January 2021
Orbit: 901 x 908 km, 67.1° (Epoch: 04 March)

Event Time Altitude Azimuth Distance (km) Brightness Sun altitude
Rises 17:57:23 0° 241° (WSW) 3,525 7.3 -17.7°
Reaches altitude 10° 18:00:05 10° 249° (WSW) 2,588 6.4 -18.2°
Maximum altitude 18:05:37 37° 316° (NW) 1,384 4.1 -19.1°
Enters shadow 18:11:06 10° 23° (NNE) 2,580 4.9 -20.0°
